Wind_Speed
13 12 12 12 12 12 12 13 14 14 15 17 18 19 20 22 23 24 25 26 26 27 27 27 27 27 27 27 28 29 30 32 33 34 37 39 41 43 46 47 49 51 53 55 55 55 55 55 55 54 54 54 54 53 52 52 52 53 54 55 54 53 53 53 53 52 50 49 45 40 40 41 43 46 47 47 46 46 44 42 39 36 34 32 32 30 29 29
13 12 12 12 12 12 13 13 14 15 16 18 19 20 21 23 24 25 26 27 28 28 27 27 28 28 29 29 29 29 30 30 31 33 34 36 39 41 44 46 47 49 51 53 55 56 56 56 57 57 56 56 56 55 55 55 53 53 54 54 54 54 55 54 54 56 55 53 50 46 44 42 43 45 47 48 48 48 46 44 41 39 37 36 36 33 31 30
13 12 12 12 12 12 13 14 15 16 17 18 20 21 22 24 25 26 28 28 28 28 27 27 27 28 29 29 30 30 30 30 30 32 33 34 36 39 41 44 46 47 49 51 53 55 57 57 58 58 58 58 58 57 57 57 56 55 55 54 55 55 55 55 56 57 57 55 53 50 47 45 44 45 46 48 49 49 48 46 43 41 38 37 37 36 33 31
13 13 12 12 12 13 14 15 16 17 18 19 20 22 23 24 26 27 29 29 28 27 27 27 27 29 29 30 30 30 31 30 30 30 31 32 34 37 39 42 45 46 48 49 51 54 56 58 59 59 60 60 60 60 59 58 58 58 57 57 56 55 55 57 57 57 57 56 54 52 51 48 45 45 46 47 47 48 47 46 45 43 39 36 36 36 34 33
14 13 12 12 12 13 14 16 17 18 19 20 21 22 24 25 26 28 29 29 28 27 27 27 28 29 30 30 30 30 30 30 29 29 30 31 33 35 37 41 43 46 47 49 51 53 55 58 60 60 61 62 62 63 62 61 60 60 59 59 57 56 57 58 57 57 57 57 56 54 53 50 47 47 47 47 46 46 46 47 47 44 40 37 36 35 34 34
14 14 12 12 12 13 14 16 17 19 20 21 22 23 23 24 26 28 29 29 29 28 28 29 29 30 31 30 30 30 30 30 29 29 30 30 31 33 35 38 41 44 47 49 51 53 55 57 60 61 62 63 64 64 64 63 63 62 61 61 59 58 59 59 58 58 57 57 57 55 54 52 50 50 49 49 47 45 47 48 49 46 42 39 37 36 35 34
14 14 13 12 12 13 15 16 18 19 20 21 21 22 23 24 26 28 30 31 31 30 30 30 31 31 31 31 31 31 31 31 31 31 31 31 31 32 33 35 37 41 45 49 51 53 55 58 60 62 63 64 65 66 66 65 65 64 63 63 62 60 60 60 60 59 58 58 58 57 55 54 53 52 52 51 48 45 47 49 49 48 45 42 40 38 37 35
14 13 12 11 12 13 15 17 18 19 20 21 21 22 23 24 26 28 30 32 32 32 32 32 32 32 31 30 30 30 31 32 32 32 31 31 31 31 32 34 35 38 41 46 50 53 55 58 60 62 64 66 67 67 67 67 67 67 65 64 63 63 62 61 61 61 60 59 58 58 57 56 55 55 54 53 50 47 48 49 49 50 49 45 43 42 40 38
13 13 12 12 12 14 15 17 19 19 20 20 21 22 23 25 27 28 30 31 33 34 33 33 32 32 31 29 29 30 31 32 33 32 31 30 29 29 30 32 34 36 39 42 46 51 54 57 60 63 65 67 68 69 68 69 69 68 67 66 65 64 64 63 62 62 62 61 60 59 58 57 57 57 55 54 54 51 50 51 51 51 51 49 47 46 44 42
13 13 13 13 13 15 16 18 19 20 20 21 21 22 24 25 27 28 30 31 33 34 34 33 33 32 30 29 29 30 32 33 34 34 34 32 30 28 28 29 31 34 37 39 42 46 51 55 59 62 65 68 69 70 70 70 71 69 68 68 67 67 66 65 65 64 64 63 62 61 60 59 59 59 55 54 57 57 55 54 54 54 53 52 51 49 47 45
14 14 14 14 15 16 18 19 20 21 21 21 22 22 23 25 27 28 30 31 33 34 35 34 33 32 30 28 29 30 32 33 35 36 35 33 30 28 26 26 28 31 34 37 39 42 46 51 55 59 63 67 69 70 72 72 72 71 70 70 69 69 68 68 67 66 65 66 66 64 62 60 60 59 57 56 59 62 60 58 57 57 56 54 53 51 49 48
15 16 16 16 17 18 19 20 21 21 22 22 22 23 23 25 26 28 29 31 33 34 35 35 33 32 30 29 29 30 31 33 34 36 36 35 34 32 29 26 24 25 28 32 36 39 41 45 50 54 59 64 67 71 73 73 73 72 72 71 71 71 70 70 70 69 68 68 68 66 64 62 60 60 60 59 60 63 64 62 60 59 59 57 55 54 53 52
17 17 18 18 18 19 20 21 21 22 22 22 22 23 23 24 26 27 29 31 32 34 35 35 34 33 31 30 29 30 30 32 34 36 39 40 39 37 35 32 29 26 24 26 30 34 38 41 44 48 53 57 63 69 72 73 73 73 73 73 72 71 72 73 72 71 71 70 69 66 66 66 63 62 61 60 62 64 66 65 63 62 62 61 59 58 56 55
18 19 19 19 20 20 21 21 22 22 22 22 23 23 23 24 25 27 29 30 32 33 34 34 34 34 32 30 30 29 30 31 33 37 39 40 40 39 38 35 33 30 27 25 25 27 31 35 39 42 46 50 56 62 67 71 73 74 73 73 73 72 73 74 74 73 73 72 70 68 68 69 66 64 62 62 63 64 67 67 66 65 65 65 64 62 60 59
19 19 20 20 20 21 21 22 22 22 22 22 22 23 23 24 25 27 28 30 31 32 33 35 35 34 32 30 28 29 30 31 33 34 35 36 37 37 37 35 33 32 30 27 25 25 26 28 32 36 39 43 48 53 59 66 72 74 73 73 75 74 73 74 74 75 75 74 73 71 71 71 69 66 64 64 64 65 68 69 69 68 66 66 67 66 65 63
20 20 21 21 21 21 21 22 22 22 22 22 22 22 23 24 25 27 28 29 31 32 33 34 34 33 31 30 29 30 30 31 32 32 33 34 35 37 38 38 37 35 32 28 24 22 23 24 25 29 33 37 40 44 50 57 65 71 73 74 75 75 74 73 73 75 76 76 75 74 73 71 70 69 66 66 66 66 68 69 70 70 69 67 67 68 67 65
21 21 21 21 21 21 21 21 22 22 22 22 22 21 22 23 25 26 27 28 30 32 34 33 33 32 30 30 29 28 29 30 31 32 33 34 36 39 40 41 41 40 39 36 30 25 21 21 21 23 26 30 33 36 40 48 55 63 70 74 75 75 74 73 71 72 75 76 77 76 75 73 72 71 69 67 67 68 69 70 70 72 72 69 68 68 68 67
21 21 21 21 21 21 21 21 21 22 22 21 21 21 22 23 24 25 26 28 30 32 32 32 32 30 29 28 27 27 28 30 31 32 33 36 37 39 40 42 43 44 44 41 35 29 25 21 19 19 21 23 26 29 33 39 45 53 62 69 74 75 75 73 70 70 73 76 77 77 76 75 74 73 70 69 68 69 70 71 71 73 74 72 69 68 68 69
21 21 21 21 21 21 21 22 21 22 22 22 21 21 22 22 24 25 26 28 29 29 29 30 32 31 30 30 29 28 29 29 30 32 33 35 37 39 41 44 45 44 42 40 36 30 26 22 19 17 18 19 21 23 26 31 37 44 52 60 68 73 75 75 73 70 71 74 75 76 77 76 75 74 72 70 69 69 70 71 72 73 74 73 70 69 69 71
21 21 21 21 21 21 21 22 22 22 22 22 21 21 21 22 24 25 26 27 28 29 30 31 32 32 31 31 31 30 29 29 29 30 32 33 35 37 40 41 43 42 42 43 42 39 33 27 21 18 17 17 18 19 22 25 29 35 42 49 58 67 72 75 75 73 71 71 72 74 76 76 76 75 73 71 70 70 70 71 72 72 73 72 69 68 70 72
21 21 21 21 21 22 22 22 23 23 22 21 21 21 21 22 24 25 25 27 29 30 30 31 32 32 30 30 30 30 29 28 28 29 30 31 33 35 35 36 37 39 43 46 46 44 40 33 27 22 18 16 16 17 19 21 25 29 34 40 47 57 65 70 74 75 73 71 71 72 73 74 75 75 73 72 71 70 70 71 72 72 73 72 70 68 69 71
22 21 21 21 21 22 22 23 23 23 22 21 20 21 21 22 24 24 26 28 29 29 30 31 32 31 29 28 28 27 28 28 27 28 29 29 31 32 33 34 35 38 42 43 43 43 42 40 38 33 27 21 18 17 17 18 21 24 27 32 38 46 55 62 68 73 74 73 72 72 72 70 71 73 72 71 71 70 70 69 70 72 72 72 72 70 69 70
22 21 20 20 21 21 21 22 22 22 21 20 20 21 21 22 23 24 26 27 28 28 28 30 31 30 28 27 26 26 25 25 26 27 28 29 29 31 32 34 35 38 39 40 41 42 43 45 44 41 38 32 26 22 19 18 19 20 23 26 31 37 44 51 58 65 70 72 72 72 72 70 69 69 69 68 68 68 68 68 69 71 72 72 72 72 71 69
22 20 19 19 19 20 20 20 21 21 20 20 20 21 21 22 24 25 26 27 27 26 27 29 30 29 27 26 26 25 25 25 25 26 28 29 30 30 31 33 35 36 38 41 42 42 44 45 45 45 44 41 37 31 25 21 19 19 20 22 25 29 34 40 47 54 60 65 69 71 70 70 69 67 65 65 64 64 65 66 67 69 71 72 73 73 72 70
22 20 18 18 18 19 20 20 20 20 20 20 20 21 21 22 24 25 26 26 26 26 28 29 29 29 28 28 27 26 26 26 26 26 28 30 30 30 31 32 34 36 38 40 41 41 42 44 44 44 44 44 42 38 34 28 23 20 18 19 21 24 27 32 38 43 49 54 61 66 67 68 69 67 64 64 62 62 63 64 66 68 70 71 72 73 73 71
23 21 19 18 18 19 20 20 20 20 20 20 20 21 21 23 24 24 24 25 26 27 27 27 28 28 28 27 27 26 26 26 26 27 29 31 31 31 32 33 34 35 36 37 39 40 41 43 44 43 42 41 40 39 38 36 31 27 22 19 19 20 21 26 30 34 39 43 50 59 62 64 66 65 63 62 61 62 63 63 64 66 68 70 71 72 73 72
25 23 22 20 20 20 20 20 20 20 20 20 21 21 22 23 23 24 25 25 26 27 27 27 27 27 27 27 27 27 27 27 28 29 29 30 31 32 33 33 34 34 34 35 36 38 39 40 41 41 40 38 38 40 41 40 38 35 30 24 20 18 18 20 23 27 30 33 39 48 55 59 61 59 58 59 59 61 62 63 64 65 67 68 69 70 72 72
25 25 24 22 22 21 21 21 20 20 20 21 21 21 22 23 23 24 26 26 26 27 28 28 27 26 26 26 27 28 28 28 28 28 29 30 32 32 32 33 34 34 35 35 34 35 36 37 38 39 39 39 40 41 42 41 40 38 36 32 27 22 18 17 18 21 23 26 29 36 45 51 53 53 53 54 55 57 59 61 64 65 66 67 68 69 69 70
25 25 24 24 23 22 21 21 21 21 21 21 21 21 22 23 23 25 25 25 26 27 28 28 28 27 27 27 27 28 28 28 28 29 30 31 31 31 31 32 34 35 36 35 34 35 35 35 36 37 39 41 41 41 41 40 39 38 38 38 35 31 25 20 17 17 18 20 22 27 35 40 44 46 48 50 51 53 55 57 60 62 64 66 67 68 68 68
24 24 24 23 23 22 22 21 21 21 21 21 21 21 22 23 23 24 25 25 26 27 27 28 28 28 28 28 28 27 27 27 28 29 30 31 31 31 31 31 31 34 36 35 35 35 35 35 35 35 37 39 40 40 39 38 38 38 38 37 36 36 33 29 24 19 17 18 19 22 26 30 32 35 39 43 44 47 50 52 55 58 61 63 65 66 67 68
22 22 22 22 22 22 22 21 21 21 21 21 22 22 22 23 23 23 24 25 26 27 27 28 28 27 28 28 27 27 27 27 27 28 29 29 29 29 29 29 29 31 34 35 36 36 36 36 35 35 36 36 36 37 37 37 37 37 36 34 34 34 33 32 30 25 21 19 19 19 20 23 24 24 29 33 33 37 43 46 50 53 56 59 62 65 67 67
21 21 21 21 21 21 21 21 21 21 21 22 22 22 23 23 23 23 25 26 27 28 28 27 28 28 29 28 29 29 29 28 28 28 29 30 29 29 29 29 29 29 31 34 36 37 36 36 36 35 35 34 33 33 34 33 34 33 32 31 31 31 31 31 30 28 24 22 22 19 16 17 17 16 21 24 23 25 31 36 43 48 51 53 55 60 63 66
20 20 21 21 21 21 21 21 21 21 21 22 22 23 23 22 23 24 25 26 27 28 28 28 28 28 29 29 31 32 32 31 31 31 31 32 33 32 30 30 30 30 30 31 34 35 34 35 36 35 33 33 32 33 33 34 34 35 34 34 35 35 34 32 31 30 27 24 25 22 17 14 13 12 16 22 19 18 23 29 33 37 43 48 50 53 56 60
19 19 20 20 20 21 21 21 21 21 21 22 21 23 23 22 22 24 25 26 26 27 28 29 29 29 30 30 32 33 34 34 34 33 34 35 34 33 31 29 30 29 29 29 31 33 34 34 36 36 34 34 35 35 36 37 38 38 38 37 37 36 35 34 34 33 31 27 26 24 20 16 15 13 16 21 20 18 22 27 27 27 31 37 41 45 49 52
18 18 19 19 20 20 20 20 21 21 22 22 22 23 24 23 23 24 25 26 27 27 27 29 30 30 31 32 33 34 35 36 36 36 37 36 36 36 34 33 32 31 31 30 30 32 34 35 37 37 37 36 36 36 36 37 38 38 38 37 35 34 33 32 32 32 31 30 27 26 24 20 19 18 19 22 22 22 23 25 28 28 28 30 32 35 39 44
17 17 18 18 19 19 19 19 20 20 21 22 22 23 24 24 24 25 25 26 26 27 27 28 29 30 31 31 32 33 33 34 35 35 36 36 36 36 36 35 35 34 34 33 31 31 32 34 36 37 37 37 36 36 36 36 37 37 38 38 37 36 34 32 31 30 30 30 27 26 24 20 19 20 22 23 24 28 29 29 32 32 31 31 32 33 35 39
15 16 17 17 18 18 19 19 19 20 20 21 21 22 23 23 24 24 25 25 26 27 27 27 28 28 29 30 31 32 32 32 33 33 33 34 34 35 35 35 35 35 35 34 34 32 31 31 33 34 35 35 36 36 35 36 37 36 37 39 39 39 37 36 34 32 32 31 27 24 22 21 22 21 24 26 28 34 38 38 38 37 36 34 32 34 34 37
15 15 16 16 17 17 18 19 19 20 20 20 20 20 21 21 22 23 23 24 24 25 26 27 27 27 28 29 30 31 31 31 32 32 32 33 33 34 34 35 35 35 35 35 35 34 32 29 30 31 33 34 34 35 36 36 36 36 36 37 39 40 39 39 39 38 38 37 34 27 20 20 24 23 25 28 31 37 42 44 43 41 40 38 36 35 35 34
15 15 16 16 16 16 17 18 19 20 20 21 21 21 20 20 21 21 22 22 23 24 24 25 26 26 27 28 29 30 30 31 31 31 32 32 33 33 33 34 35 35 35 35 34 34 33 31 30 30 32 33 34 34 37 37 37 36 36 36 37 38 38 39 40 40 41 41 41 37 26 18 20 22 24 27 31 36 42 45 45 44 43 43 41 39 38 37
17 17 17 17 17 17 17 17 18 19 20 21 22 22 22 21 20 20 21 21 22 22 23 24 25 25 26 26 27 28 29 30 31 31 32 32 32 32 32 33 34 34 34 35 34 33 33 32 31 31 31 33 34 35 36 38 38 38 38 38 38 37 38 39 39 39 39 40 42 44 38 24 18 22 26 29 33 36 40 43 44 43 43 45 46 45 43 42
20 19 18 19 18 18 18 18 18 19 19 21 22 23 24 24 23 22 22 22 22 22 23 23 24 25 25 26 27 28 28 29 30 31 32 32 32 32 32 32 33 33 33 34 34 32 32 32 32 32 32 33 34 35 36 37 38 38 38 39 39 39 40 40 40 39 39 40 40 44 46 36 25 27 31 35 39 41 42 43 43 41 40 41 44 46 47 47
21 21 21 21 20 20 19 20 20 20 20 21 22 23 25 25 25 25 25 24 24 24 24 24 24 25 26 26 27 28 29 30 31 31 32 32 33 33 33 33 33 33 33 33 33 33 32 32 32 32 33 34 35 35 35 36 37 38 38 39 40 41 42 43 43 42 41 41 40 44 50 43 31 32 37 40 43 44 46 48 46 44 42 40 40 41 43 45
22 23 23 23 23 22 21 21 22 21 21 22 23 24 25 26 27 27 27 27 27 27 27 26 26 26 27 27 27 28 29 30 31 32 32 33 34 34 34 34 34 34 34 34 34 34 35 35 34 33 32 32 34 35 35 35 37 38 39 40 41 42 43 45 45 45 43 41 40 47 53 46 35 37 40 41 43 45 48 51 50 49 47 45 44 43 42 42
23 24 24 24 24 24 24 23 23 23 23 24 25 25 26 27 28 29 30 30 30 30 30 30 29 29 29 29 28 28 30 31 31 32 33 34 34 35 36 36 36 36 36 35 35 35 36 37 37 37 35 33 33 35 36 36 37 38 40 41 42 43 45 46 46 46 46 43 43 50 53 48 44 44 41 42 45 47 49 51 51 51 51 50 48 48 47 45
24 25 25 25 26 26 26 26 25 25 26 26 27 27 28 29 30 31 32 32 32 33 33 34 33 33 32 32 31 30 30 31 32 32 33 34 35 36 37 37 37 38 38 38 37 37 37 38 39 40 39 38 37 38 39 39 37 38 39 41 43 45 46 47 47 47 48 48 49 53 54 52 52 50 45 44 47 50 51 52 51 50 51 52 51 51 51 50
26 25 26 26 27 27 27 28 27 27 28 28 28 29 30 31 32 33 34 35 34 35 36 36 36 36 36 36 34 33 32 33 33 33 33 34 35 36 37 38 38 39 39 39 40 39 38 39 40 40 40 41 40 39 41 41 40 39 40 42 44 46 47 48 49 49 50 53 54 53 55 59 58 55 52 50 50 51 52 53 53 52 52 52 52 51 52 53
27 26 26 27 28 28 28 29 29 29 29 30 30 30 31 32 33 34 35 36 37 37 37 38 39 39 39 39 38 36 35 35 35 35 35 35 36 36 37 39 39 39 40 40 41 42 40 39 41 41 40 41 41 40 41 41 41 41 41 42 45 47 48 50 51 51 52 56 58 54 55 61 61 59 58 56 54 53 53 53 54 54 54 54 53 52 52 53
28 28 27 28 29 29 29 30 31 30 31 31 31 32 32 33 34 35 37 38 38 38 39 40 40 41 41 41 41 39 38 38 37 37 37 37 38 37 37 39 40 39 40 40 41 43 43 41 42 42 41 41 41 41 42 42 42 42 42 44 46 47 49 51 53 53 54 58 60 58 58 61 61 59 61 61 59 57 56 55 55 55 56 56 55 54 53 53
29 29 29 29 29 30 30 32 32 32 32 33 33 33 34 34 35 36 38 39 40 40 40 41 42 42 43 43 43 42 42 41 40 40 40 39 40 40 38 39 41 40 41 41 41 44 45 44 44 44 42 42 42 42 43 43 42 42 43 45 47 47 50 53 54 54 55 59 61 62 64 64 60 58 60 62 61 61 59 58 57 57 57 57 56 56 55 54
29 30 30 30 30 30 31 32 33 33 33 34 35 35 35 35 36 37 39 40 41 42 42 43 44 44 45 45 45 45 44 44 43 42 42 42 42 43 42 41 42 42 42 43 43 45 47 46 46 47 45 43 43 45 45 45 45 44 43 45 47 49 52 54 55 55 57 60 63 65 67 66 62 60 61 61 63 64 63 62 60 59 58 58 58 57 57 56
30 31 31 31 31 31 32 32 34 34 34 35 36 36 37 37 37 39 40 41 43 44 44 45 45 45 46 46 47 47 46 46 45 45 44 44 44 45 45 44 45 45 45 45 45 46 48 48 48 49 48 45 45 47 47 48 47 46 45 46 48 51 53 55 56 57 59 62 65 67 68 66 64 64 63 62 63 65 66 65 63 61 59 58 59 59 59 58
31 31 32 32 32 33 33 33 34 35 36 36 37 38 38 39 39 40 41 42 44 46 46 47 48 47 47 47 48 49 48 48 47 47 46 46 46 47 47 47 47 47 47 48 48 48 50 50 50 51 51 48 48 50 51 52 50 48 47 48 49 51 54 56 58 60 62 64 66 67 68 67 67 67 67 65 65 66 67 67 66 64 61 60 59 60 62 61
Wind_Direction
10 10 10 12 13 9 5 0 356 353 350 347 344 341 339 336 333 329 326 322 319 316 313 311 310 308 305 302 298 293 289 285 282 279 277 274 271 267 264 261 258 255 254 254 253 251 249 248 247 246 245 246 247 247 246 245 244 245 246 247 247 246 245 244 244 245 245 245 245 240 238 239 238 236 237 241 245 247 248 247 246 245 244 243 244 244 245 246
4 3 4 7 7 3 359 356 353 349 347 345 342 339 337 334 332 330 327 325 322 319 315 313 312 311 309 306 304 300 295 290 286 281 278 275 272 269 266 263 260 256 254 253 252 251 250 248 247 246 244 244 245 246 246 246 244 244 245 247 247 246 246 244 243 243 244 245 246 243 240 240 241 239 238 239 243 246 248 249 248 247 246 243 243 243 242 244
358 356 358 359 359 358 355 352 350 347 345 343 340 338 336 334 333 332 330 328 326 322 319 316 315 315 314 311 309 306 302 297 292 287 282 277 273 269 266 263 260 257 255 252 251 250 249 248 247 246 245 243 244 244 245 245 245 244 244 245 245 246 247 246 243 242 243 244 245 245 242 241 241 241 239 238 240 244 247 249 250 249 247 244 243 243 240 240
353 351 349 351 353 352 350 348 347 345 343 342 339 337 336 336 335 335 334 332 329 326 322 320 319 319 318 316 314 313 310 304 300 296 290 283 277 271 266 262 260 257 254 252 250 249 248 246 246 245 245 243 242 243 243 244 244 245 244 244 245 246 246 246 245 243 243 244 244 244 243 241 240 240 239 238 238 241 244 248 250 250 247 244 243 243 240 237
350 346 342 343 347 346 344 344 344 343 342 341 339 338 338 337 338 339 338 337 335 331 328 325 324 323 323 321 318 317 314 309 307 304 297 291 284 277 270 264 260 257 254 251 248 247 246 245 244 243 243 243 242 242 242 242 243 244 244 244 244 244 244 245 245 244 243 243 243 242 242 241 239 238 238 237 237 238 241 245 248 248 246 243 242 243 240 236
345 343 339 338 341 341 340 341 341 341 341 341 340 339 339 339 341 343 344 343 341 337 334 331 329 328 327 325 322 321 319 317 315 309 303 297 291 284 277 270 263 257 254 251 247 245 244 243 242 241 240 241 241 241 240 241 241 242 243 244 244 243 244 245 245 245 244 243 243 241 241 240 237 236 236 236 236 235 237 242 246 247 245 242 242 242 241 237
341 340 338 337 338 337 338 338 339 340 340 340 340 340 340 341 342 345 348 348 345 343 340 337 335 333 331 329 327 327 327 327 325 319 313 306 298 291 283 276 268 261 255 252 248 244 242 241 240 239 238 238 239 240 240 239 240 241 242 243 244 243 243 244 245 244 244 243 243 242 241 239 236 234 235 235 233 232 235 239 243 246 245 242 241 241 241 239
339 339 338 338 336 336 336 337 338 339 339 340 339 340 340 341 342 345 348 349 349 347 344 342 340 337 334 332 331 333 334 335 332 328 323 316 307 298 290 282 274 266 259 254 250 246 243 240 239 238 237 236 236 237 239 239 238 239 240 241 243 244 243 243 243 244 244 242 243 242 241 239 235 233 234 235 233 229 232 236 239 243 245 243 242 242 241 239
338 338 338 337 336 335 335 336 337 338 338 339 339 340 340 341 343 345 346 347 349 349 347 345 343 340 337 334 335 337 338 337 336 334 331 326 317 308 298 289 280 271 264 258 253 249 245 241 239 237 236 235 234 235 236 238 238 237 237 239 240 242 243 242 242 242 243 242 241 241 240 239 236 233 232 234 234 230 228 232 235 238 241 243 242 242 241 240
338 337 337 337 336 334 334 335 335 336 337 338 339 340 341 342 343 344 345 346 348 349 349 347 345 343 339 337 338 339 340 340 340 341 340 337 331 321 310 299 290 280 270 263 257 252 248 245 241 238 236 236 234 233 234 235 236 236 236 236 237 239 240 241 241 240 241 242 241 239 239 238 236 235 233 231 233 233 229 228 232 235 238 240 241 242 241 240
337 336 336 336 334 333 333 333 334 335 336 337 338 340 341 343 344 344 344 346 347 348 350 349 347 345 342 341 340 340 342 344 346 347 346 345 343 337 326 314 302 290 280 271 264 258 252 248 245 241 238 236 235 234 233 233 234 235 235 235 235 236 238 239 239 239 239 240 240 240 239 238 238 238 235 229 231 234 232 229 230 234 236 238 240 242 242 242
335 335 334 333 332 332 331 332 333 334 336 337 338 340 341 343 344 344 345 346 346 348 350 350 349 347 345 343 341 342 345 347 350 350 350 351 350 347 341 331 317 302 291 281 273 267 260 253 249 245 242 239 236 235 234 233 233 234 234 234 234 234 235 236 237 238 238 238 239 241 240 238 237 236 235 231 230 233 235 232 229 232 235 237 239 241 243 244
334 333 332 331 330 330 330 331 332 334 336 337 339 340 341 343 343 344 346 346 346 348 350 351 351 350 347 344 343 344 347 350 352 354 357 358 356 353 350 344 337 325 309 294 282 275 270 263 256 250 246 243 239 237 236 234 233 233 234 234 233 233 234 234 235 237 237 237 238 239 240 239 236 235 235 233 231 232 234 235 232 231 234 236 238 240 242 244
333 332 331 330 330 329 330 331 332 334 336 337 339 339 341 342 342 345 346 345 346 348 350 352 353 351 348 346 345 346 349 352 357 1 3 3 1 359 356 352 346 339 330 316 299 285 277 271 265 258 252 247 243 240 238 236 234 234 234 234 234 233 234 233 233 235 236 237 237 236 238 239 238 235 234 234 233 232 233 234 235 234 234 236 238 239 241 243
333 333 332 331 331 331 331 331 332 334 336 338 338 339 341 341 342 345 345 345 347 348 350 354 354 352 350 346 345 349 353 356 0 4 6 6 6 5 3 359 355 350 343 333 319 302 290 279 271 265 259 253 248 244 241 238 237 235 235 236 235 233 234 233 233 234 234 235 236 235 236 237 238 236 234 234 233 233 233 234 235 236 235 236 238 239 240 242
333 332 332 332 332 332 332 332 332 334 336 337 338 339 340 340 343 345 344 346 347 347 352 355 355 353 349 346 350 355 357 359 360 2 5 7 8 10 10 7 5 360 354 348 336 318 303 290 280 272 266 261 254 248 244 241 239 237 236 237 236 235 235 234 233 234 234 234 235 234 234 235 237 237 235 234 233 233 234 234 235 237 237 237 237 239 241 241
333 331 331 331 331 332 333 334 333 334 336 337 338 338 338 342 344 343 343 346 346 349 354 355 354 353 351 351 355 356 358 360 359 0 4 8 10 12 14 14 12 8 4 360 353 340 324 304 289 278 271 267 262 255 249 244 241 238 238 238 237 237 237 235 235 236 235 234 234 234 234 233 235 237 235 234 233 234 235 235 235 237 239 239 238 239 240 241
334 333 332 332 332 333 334 335 334 335 336 337 338 337 340 343 341 340 343 346 348 352 353 353 354 353 352 354 354 354 358 1 0 1 5 9 11 13 16 17 17 15 11 6 1 351 339 324 306 290 279 272 267 262 255 249 244 241 239 238 238 238 239 238 237 237 237 236 235 234 234 233 233 235 236 235 234 234 235 236 236 236 239 241 240 238 239 240
335 335 334 333 333 333 335 335 336 336 336 337 338 339 341 340 339 342 345 348 350 350 348 350 354 353 354 355 353 355 360 1 2 4 7 10 11 14 17 18 19 19 17 14 12 5 355 344 330 309 292 281 273 267 262 256 249 244 241 239 239 238 239 240 239 239 238 237 237 236 235 233 233 234 235 235 235 235 234 236 237 237 239 242 243 240 238 238
335 335 335 334 334 334 335 336 336 336 336 337 338 340 339 338 341 345 346 347 347 345 347 352 355 356 356 355 354 357 359 1 3 5 8 10 12 17 19 19 19 18 19 22 22 19 13 1 346 328 309 295 284 273 267 263 257 251 246 242 240 239 239 240 241 241 240 239 238 238 237 235 234 234 234 235 236 236 236 236 237 238 239 241 244 243 240 237
339 337 337 336 336 336 336 337 337 336 335 336 337 338 338 340 344 344 345 345 344 346 349 352 356 358 359 358 357 356 357 0 4 6 9 10 13 17 20 21 20 19 21 24 25 25 21 15 8 358 342 322 305 290 277 269 265 259 253 248 244 241 240 239 241 242 242 241 240 240 239 237 236 236 235 235 236 237 238 238 238 239 240 241 242 243 243 241
345 343 341 339 338 338 339 338 337 336 335 336 337 338 341 344 344 344 345 344 345 348 350 353 356 358 1 1 359 357 356 359 3 7 9 10 13 15 18 20 20 21 24 26 27 28 28 28 26 22 13 358 340 322 303 287 275 269 263 256 252 248 243 241 241 242 243 243 242 242 241 240 240 239 238 238 237 238 239 240 240 240 241 242 242 242 243 243
349 348 345 343 342 342 342 341 340 340 338 337 338 340 343 344 345 346 345 345 348 351 352 354 356 359 3 2 360 359 358 358 2 5 7 10 13 14 16 19 20 22 24 26 27 28 30 32 32 30 28 21 11 358 339 318 299 286 276 266 261 257 250 247 245 244 243 243 243 244 243 242 242 242 242 242 241 241 241 242 243 243 242 243 243 242 242 243
352 353 351 349 349 349 349 348 348 347 344 342 342 343 343 345 346 346 345 347 350 352 355 357 358 0 3 3 3 1 359 360 3 5 7 9 12 14 15 17 20 21 21 23 25 25 28 31 32 31 30 29 26 19 8 351 331 313 297 283 273 266 260 255 252 249 247 246 245 244 244 244 244 244 246 245 245 245 245 245 245 244 243 243 243 243 243 243
358 358 359 359 357 357 357 355 355 354 353 351 349 347 346 347 347 346 348 350 353 356 359 360 0 3 5 5 5 3 2 3 3 5 8 9 11 13 15 16 19 20 21 23 22 22 25 29 31 32 30 29 29 26 22 16 4 346 325 307 292 280 271 265 259 255 253 251 249 246 244 244 245 246 248 247 247 248 248 247 247 246 245 244 244 244 244 244
8 9 10 11 9 7 5 3 2 1 1 359 357 354 351 350 350 350 353 355 357 360 2 3 6 7 7 7 7 6 6 5 5 8 9 9 9 12 14 15 18 20 21 22 21 20 22 25 28 30 30 29 29 28 28 27 22 13 358 337 318 302 287 277 269 264 260 257 254 250 247 245 244 246 249 249 248 249 249 249 249 248 247 247 246 245 244 244
18 19 20 21 20 18 14 12 10 8 8 7 5 2 359 357 356 356 359 1 2 2 4 7 10 12 12 11 10 9 8 7 8 10 9 8 9 12 13 14 15 18 20 21 20 20 21 22 23 25 28 29 29 29 30 29 27 24 18 7 349 329 311 295 283 277 271 266 262 256 252 249 246 247 250 249 249 250 250 251 251 250 249 249 248 247 246 245
25 26 27 28 28 26 23 21 20 19 18 16 15 11 8 4 2 2 3 4 6 7 7 9 12 15 16 15 14 12 11 10 9 9 9 9 10 11 12 14 14 15 18 19 19 20 22 21 20 20 21 23 25 27 28 28 27 25 24 23 16 2 343 324 305 294 287 278 272 265 258 253 251 252 253 251 251 251 251 251 251 251 250 250 250 250 249 248
32 32 32 33 33 31 30 28 26 26 24 22 19 17 13 9 8 8 7 8 12 12 11 12 12 14 16 16 16 13 11 10 9 9 9 10 10 9 10 13 13 13 15 16 16 18 21 20 19 17 16 18 21 23 24 25 25 23 23 24 23 20 13 1 343 324 309 296 286 278 267 259 258 259 259 258 255 254 253 252 251 250 250 251 251 251 251 251
38 38 38 38 37 37 35 33 31 29 27 25 22 19 16 14 14 13 11 13 16 15 14 14 14 14 15 15 14 12 11 9 9 8 8 9 8 7 8 10 11 12 11 11 13 16 18 19 19 16 14 15 16 18 19 19 20 21 21 20 20 21 21 17 9 357 338 320 306 296 285 272 266 266 266 265 262 258 257 255 253 251 250 250 251 251 252 253
45 45 45 44 43 43 41 40 38 36 34 32 29 28 25 22 20 19 18 20 19 17 17 16 15 15 15 14 12 12 12 10 8 6 5 6 7 7 8 9 10 10 8 7 10 13 15 17 18 16 16 14 12 13 14 14 15 17 17 17 17 17 17 19 16 11 359 340 323 311 299 288 281 276 272 273 272 267 263 261 258 255 253 251 251 250 251 252
47 49 49 49 48 48 47 46 46 44 42 41 38 38 36 30 27 27 27 26 23 21 19 18 17 16 15 14 13 14 14 11 10 8 6 8 10 12 11 10 9 8 6 6 8 10 11 13 15 15 16 14 11 10 10 9 10 12 12 11 13 14 14 16 15 14 11 358 346 332 313 299 292 285 281 279 276 271 269 268 265 261 257 255 253 252 251 251
47 49 50 50 50 50 50 50 49 48 47 46 44 44 42 36 33 34 32 30 27 25 23 21 21 19 18 16 16 16 17 15 14 13 12 13 14 15 13 9 8 7 7 8 8 8 9 10 11 13 13 11 11 10 8 7 6 7 7 7 8 8 6 7 9 11 12 8 358 347 335 316 297 285 278 273 270 269 267 267 268 267 263 260 257 254 253 252
42 45 46 47 48 48 48 48 47 47 47 46 45 45 45 40 36 36 34 33 32 29 27 25 24 23 21 21 20 20 20 20 19 17 17 16 15 15 14 11 10 9 8 9 9 7 7 9 9 9 10 9 9 9 6 4 4 3 3 4 5 3 0 359 360 1 3 5 360 352 347 331 309 291 272 267 272 278 269 260 259 261 263 264 261 258 255 253
33 36 39 40 41 42 43 43 43 43 43 43 41 41 41 39 36 35 33 32 31 30 28 27 26 25 24 23 23 24 24 23 22 22 21 20 19 18 18 16 14 13 11 11 11 8 5 6 6 5 7 7 7 7 6 3 2 0 360 360 359 358 357 356 353 351 351 354 354 351 349 339 320 303 283 277 278 277 270 263 260 257 258 259 259 259 259 256
20 24 28 31 32 33 34 35 36 37 37 38 37 36 36 35 33 33 30 28 27 27 26 25 24 23 22 21 21 21 23 22 22 22 21 22 22 20 19 18 17 15 13 13 14 11 6 4 3 1 2 4 4 5 5 3 1 360 357 355 354 353 353 351 349 345 342 343 345 347 349 339 321 303 288 281 274 267 262 262 265 265 263 261 258 257 257 258
7 11 15 19 22 23 24 25 26 27 29 31 31 31 31 31 30 29 28 25 23 22 22 21 21 19 17 16 16 16 17 17 17 17 17 17 18 17 16 16 15 14 12 12 13 13 10 5 2 359 359 1 1 1 2 2 1 359 355 352 350 349 348 345 343 340 336 334 335 343 347 331 315 301 287 276 266 263 264 263 266 268 267 266 262 260 258 258
355 357 1 7 10 13 14 14 15 16 17 19 22 24 25 25 25 25 23 22 20 18 17 16 17 17 15 13 11 11 10 11 11 11 11 11 11 12 11 10 11 11 10 10 10 11 10 6 2 0 358 359 359 358 359 1 0 357 354 351 348 346 344 341 339 337 334 331 329 336 342 328 315 303 290 281 272 270 271 270 270 270 269 268 266 263 261 260
342 345 348 354 357 0 3 4 5 6 6 6 8 12 15 16 17 17 17 16 15 13 12 11 11 11 11 9 7 6 5 5 4 4 5 5 5 5 5 3 4 6 6 7 7 6 6 5 2 0 358 358 359 357 357 358 359 356 354 350 347 344 341 338 336 334 332 329 326 326 329 327 316 309 302 295 288 283 282 280 277 274 271 269 268 265 262 260
331 334 338 342 345 348 351 353 355 356 357 356 356 358 1 4 5 7 7 8 7 6 5 4 4 4 5 3 1 0 359 359 358 358 358 359 358 359 359 358 358 359 360 1 2 2 1 1 1 359 357 355 355 354 354 356 356 354 351 348 345 342 339 336 333 331 328 325 323 320 322 325 312 305 307 303 298 293 290 290 288 284 278 273 270 268 265 262
323 325 329 331 334 338 340 342 344 345 347 347 347 347 348 351 353 354 355 356 357 357 356 356 355 355 356 356 355 353 353 353 352 352 351 351 351 351 352 352 352 353 353 353 354 355 355 356 356 355 352 350 350 350 351 352 352 349 346 344 342 340 338 334 331 330 326 324 322 316 319 328 320 304 302 297 294 294 292 292 292 291 289 284 278 274 271 268
317 320 322 325 327 329 331 333 335 337 337 337 339 340 339 340 342 343 345 345 346 347 346 347 347 347 348 348 348 347 346 346 346 346 345 345 344 344 346 346 346 347 347 347 346 346 347 348 350 351 348 346 345 345 345 347 346 345 343 341 339 338 336 332 330 329 326 326 321 314 320 332 326 305 298 294 292 292 291 291 290 291 291 289 286 282 277 273
312 315 317 319 321 322 324 326 328 330 330 330 332 333 333 333 334 335 337 337 338 339 339 339 339 339 340 341 342 341 339 339 340 340 339 339 339 339 340 340 341 341 342 342 341 341 340 339 341 344 346 343 341 338 338 341 341 341 340 339 338 335 332 330 329 327 325 325 318 313 322 331 319 300 295 294 294 292 289 288 288 289 289 288 287 285 282 279
308 310 312 313 315 317 318 320 322 324 324 325 326 327 327 328 328 329 330 332 332 333 333 334 333 334 335 335 336 336 334 334 334 334 334 334 334 334 334 335 335 336 337 338 338 338 337 334 334 337 339 338 336 333 334 338 338 337 337 335 333 331 328 328 327 324 322 321 315 314 320 323 315 306 299 294 292 289 286 285 285 285 285 284 284 284 283 282
305 306 307 309 310 312 313 315 317 318 319 320 322 322 323 324 324 324 325 326 327 328 328 329 329 329 330 330 331 332 331 330 330 330 329 329 329 329 329 329 330 332 333 334 334 334 335 332 329 332 333 333 334 333 332 335 336 334 332 329 328 327 326 325 324 321 319 317 318 319 318 318 320 315 305 295 290 286 284 284 285 284 283 282 281 282 282 282
302 303 304 305 306 308 309 310 311 313 314 315 316 318 318 319 320 320 320 321 322 323 323 324 324 325 325 326 327 328 327 326 326 326 325 325 325 324 324 325 326 327 328 330 330 330 332 330 326 328 330 329 330 330 329 331 332 331 329 326 323 323 322 321 320 319 316 315 320 323 316 317 323 319 308 300 293 288 286 284 284 283 282 281 280 279 279 280
300 301 302 302 303 305 306 307 308 309 310 311 312 314 314 315 316 316 316 317 318 319 319 319 320 320 321 322 323 324 323 323 323 323 322 322 321 320 321 321 322 323 324 326 326 325 327 327 323 325 327 326 326 326 325 327 329 329 327 323 321 319 319 318 317 317 314 313 319 322 316 317 323 317 308 303 298 294 290 286 283 281 281 281 280 278 277 277
299 300 300 300 301 303 304 304 305 306 307 308 309 310 311 312 313 313 313 313 314 315 315 315 315 316 316 318 319 320 320 320 321 321 320 320 319 318 319 318 319 320 321 322 322 321 322 323 320 321 323 323 322 321 321 323 326 327 325 322 320 318 315 314 313 313 311 311 316 319 317 320 322 315 307 303 300 297 293 288 284 282 281 281 280 279 278 276
299 299 299 299 300 301 302 302 303 304 305 306 307 308 309 310 310 310 311 311 311 311 311 312 313 313 313 315 317 317 317 318 319 319 318 318 317 317 317 316 316 317 317 318 318 317 318 319 318 318 319 321 320 317 318 320 323 326 324 320 318 315 312 311 310 310 308 309 314 316 317 320 320 313 307 304 300 298 294 291 288 284 282 281 281 280 279 277
298 299 299 299 299 299 300 300 301 302 303 304 305 306 307 308 308 308 309 309 309 309 309 310 310 311 312 313 315 315 315 317 318 317 316 316 316 315 315 314 314 315 315 315 315 315 315 316 316 315 317 319 318 316 316 318 321 324 323 319 317 314 311 309 308 307 306 308 312 315 317 318 316 310 307 303 300 297 295 292 289 287 284 283 281 281 279 277
297 298 299 299 299 299 299 299 300 301 302 302 303 304 305 306 306 306 307 308 308 307 308 308 308 309 310 312 312 313 314 316 316 315 315 315 315 314 313 313 313 314 315 314 313 313 313 314 314 313 315 318 316 314 315 316 320 323 322 320 317 313 309 307 306 305 305 307 311 314 315 315 312 308 306 303 299 297 295 293 291 289 286 284 283 282 280 278
295 297 299 299 300 300 300 300 300 300 300 301 302 303 303 304 304 304 305 306 306 306 306 306 307 308 309 310 310 311 313 314 313 313 313 314 314 313 312 312 312 313 314 313 313 312 312 313 313 312 314 316 315 314 314 317 320 322 321 320 316 311 308 307 305 304 304 306 310 313 313 312 309 306 305 303 300 297 294 293 292 290 289 286 284 282 281 279
Height
5789 5788 5788 5788 5787 5786 5786 5785 5784 5783 5783 5782 5781 5780 5779 5777 5776 5775 5773 5771 5770 5768 5766 5765 5763 5761 5760 5759 5757 5756 5754 5753 5753 5753 5751 5751 5750 5750 5751 5752 5754 5755 5755 5757 5758 5760 5762 5763 5765 5768 5769 5770 5770 5771 5772 5773 5776 5778 5779 5781 5784 5787 5788 5791 5794 5796 5799 5800 5802 5805 5805 5805 5805 5806 5808 5809 5810 5811 5813 5815 5817 5819 5821 5822 5822 5822 5823 5823
5789 5788 5788 5787 5787 5786 5785 5785 5784 5783 5782 5781 5780 5779 5777 5776 5775 5773 5771 5770 5768 5766 5764 5762 5760 5758 5757 5755 5753 5752 5750 5749 5749 5748 5747 5745 5745 5744 5745 5745 5747 5748 5749 5750 5751 5753 5755 5757 5758 5760 5762 5764 5765 5765 5766 5767 5770 5772 5774 5777 5779 5781 5782 5784 5787 5788 5791 5794 5797 5800 5801 5802 5802 5803 5805 5807 5807 5808 5809 5811 5814 5816 5817 5818 5818 5819 5820 5821
5789 5788 5787 5787 5786 5786 5785 5784 5783 5782 5781 5780 5779 5778 5776 5775 5773 5771 5769 5767 5765 5763 5761 5759 5758 5755 5754 5752 5750 5748 5746 5745 5744 5743 5741 5740 5739 5738 5738 5738 5739 5741 5742 5743 5745 5746 5747 5750 5751 5753 5754 5757 5758 5759 5760 5762 5763 5765 5769 5772 5773 5775 5777 5777 5780 5782 5785 5789 5792 5795 5798 5798 5798 5799 5801 5803 5805 5806 5807 5808 5810 5811 5813 5814 5815 5816 5817 5818
5788 5788 5787 5787 5786 5785 5784 5783 5782 5781 5780 5779 5778 5776 5775 5773 5772 5770 5767 5765 5763 5761 5759 5757 5755 5753 5751 5749 5747 5745 5742 5741 5740 5738 5736 5735 5734 5732 5732 5731 5732 5733 5735 5736 5738 5739 5740 5742 5744 5745 5747 5749 5751 5752 5753 5756 5757 5759 5762 5764 5767 5771 5771 5770 5773 5776 5779 5783 5786 5790 5792 5793 5795 5795 5796 5798 5801 5803 5805 5805 5805 5807 5809 5810 5811 5812 5814 5815
5788 5787 5786 5786 5785 5784 5783 5782 5781 5780 5779 5778 5777 5775 5773 5772 5770 5768 5766 5763 5761 5758 5756 5754 5752 5750 5748 5746 5744 5742 5739 5738 5736 5734 5732 5730 5728 5727 5725 5725 5726 5726 5727 5729 5730 5731 5732 5734 5736 5738 5739 5740 5743 5744 5746 5749 5751 5753 5755 5757 5762 5765 5764 5765 5767 5769 5773 5777 5780 5784 5786 5788 5790 5791 5792 5794 5797 5801 5802 5801 5800 5802 5805 5806 5807 5808 5810 5811
5787 5787 5786 5785 5785 5783 5782 5781 5780 5779 5778 5777 5775 5774 5772 5770 5768 5766 5764 5761 5759 5756 5754 5752 5749 5747 5745 5743 5740 5738 5736 5734 5731 5729 5727 5725 5723 5721 5719 5719 5719 5719 5720 5721 5722 5723 5724 5725 5727 5730 5731 5732 5734 5736 5739 5742 5744 5746 5748 5751 5754 5758 5759 5760 5761 5763 5767 5770 5773 5776 5780 5783 5785 5786 5787 5788 5792 5797 5798 5796 5796 5798 5800 5801 5803 5804 5806 5807
5787 5786 5785 5784 5784 5783 5781 5780 5779 5778 5777 5775 5774 5772 5770 5769 5767 5764 5762 5760 5757 5755 5752 5749 5747 5744 5742 5740 5737 5735 5732 5730 5727 5725 5722 5720 5717 5715 5713 5712 5712 5713 5713 5713 5714 5715 5716 5717 5718 5721 5723 5724 5725 5727 5730 5734 5736 5739 5742 5744 5747 5751 5753 5755 5756 5758 5761 5764 5767 5770 5773 5776 5778 5780 5782 5784 5788 5793 5793 5792 5793 5794 5795 5797 5798 5799 5801 5803
5786 5785 5784 5784 5783 5782 5780 5779 5778 5777 5775 5774 5772 5771 5769 5767 5765 5763 5760 5758 5755 5753 5750 5747 5744 5742 5740 5737 5735 5732 5730 5727 5724 5721 5718 5715 5712 5710 5707 5705 5705 5706 5706 5706 5706 5707 5708 5709 5710 5712 5714 5715 5717 5719 5722 5725 5728 5732 5735 5738 5741 5744 5747 5749 5750 5752 5754 5757 5760 5763 5767 5769 5771 5773 5777 5781 5784 5787 5788 5788 5789 5789 5790 5792 5793 5794 5795 5797
5785 5784 5783 5783 5782 5780 5779 5778 5777 5775 5774 5773 5771 5769 5767 5765 5763 5761 5759 5756 5754 5751 5748 5746 5743 5740 5738 5735 5733 5730 5728 5725 5722 5718 5715 5712 5708 5705 5702 5700 5699 5698 5699 5699 5698 5699 5700 5701 5702 5704 5705 5706 5709 5711 5715 5716 5718 5724 5728 5732 5735 5737 5739 5741 5744 5746 5747 5750 5753 5756 5760 5762 5763 5766 5772 5777 5779 5781 5782 5782 5783 5783 5784 5785 5787 5788 5790 5792
5784 5783 5782 5781 5780 5779 5778 5777 5775 5774 5773 5771 5769 5768 5766 5764 5762 5759 5757 5755 5752 5750 5747 5744 5741 5739 5736 5733 5731 5728 5726 5722 5719 5715 5712 5708 5705 5701 5698 5695 5693 5691 5691 5691 5691 5691 5692 5692 5694 5695 5696 5698 5701 5704 5707 5707 5709 5716 5720 5724 5728 5730 5732 5734 5736 5738 5740 5743 5745 5747 5752 5755 5756 5760 5767 5772 5772 5772 5774 5775 5776 5777 5778 5779 5781 5782 5784 5786
5783 5782 5781 5780 5779 5778 5777 5776 5774 5773 5771 5770 5768 5766 5764 5762 5760 5758 5756 5753 5751 5748 5745 5742 5739 5737 5734 5732 5729 5727 5724 5720 5716 5713 5709 5706 5702 5698 5694 5691 5688 5686 5685 5684 5684 5684 5684 5685 5685 5688 5689 5690 5694 5696 5697 5698 5702 5707 5711 5716 5719 5722 5725 5726 5727 5730 5734 5735 5735 5739 5746 5749 5751 5755 5760 5764 5765 5764 5766 5770 5771 5772 5773 5774 5776 5778 5780 5781
5782 5781 5780 5779 5778 5777 5775 5774 5773 5772 5770 5768 5767 5765 5763 5761 5759 5756 5754 5752 5749 5746 5743 5741 5738 5735 5732 5730 5728 5725 5722 5718 5714 5711 5707 5702 5698 5695 5691 5688 5685 5682 5680 5678 5677 5677 5678 5677 5678 5680 5680 5683 5687 5687 5688 5692 5696 5699 5703 5706 5710 5714 5716 5717 5719 5723 5725 5725 5728 5735 5740 5743 5746 5748 5751 5757 5758 5757 5759 5763 5766 5767 5768 5770 5772 5773 5775 5776
5781 5780 5778 5777 5777 5775 5774 5773 5772 5770 5769 5767 5765 5763 5761 5759 5757 5755 5753 5750 5748 5745 5742 5739 5736 5733 5731 5728 5726 5723 5720 5717 5713 5708 5702 5697 5693 5690 5687 5683 5680 5678 5676 5674 5673 5672 5671 5671 5672 5672 5673 5676 5678 5678 5681 5686 5690 5691 5694 5697 5702 5706 5706 5708 5712 5714 5716 5718 5724 5730 5732 5733 5738 5741 5744 5749 5751 5751 5753 5756 5761 5763 5763 5765 5767 5769 5770 5771
5780 5778 5777 5776 5775 5774 5773 5771 5770 5769 5767 5765 5763 5762 5760 5758 5756 5753 5751 5749 5746 5744 5741 5738 5735 5732 5729 5726 5724 5721 5719 5716 5712 5706 5702 5697 5693 5688 5684 5681 5678 5674 5672 5670 5668 5667 5666 5665 5665 5666 5668 5669 5670 5672 5676 5680 5682 5683 5687 5689 5692 5695 5696 5699 5705 5706 5708 5712 5717 5723 5724 5724 5730 5735 5738 5741 5744 5745 5747 5750 5753 5756 5758 5759 5761 5763 5764 5765
5778 5777 5775 5774 5773 5772 5771 5770 5768 5767 5765 5764 5762 5760 5758 5756 5754 5752 5750 5747 5745 5742 5739 5736 5733 5730 5727 5725 5723 5720 5717 5714 5711 5707 5704 5700 5696 5691 5686 5681 5677 5673 5669 5666 5664 5662 5661 5660 5660 5661 5661 5662 5664 5667 5669 5672 5673 5676 5681 5681 5682 5687 5688 5693 5698 5699 5701 5704 5709 5714 5715 5717 5722 5727 5731 5735 5737 5738 5739 5742 5746 5749 5752 5754 5755 5756 5758 5759
5777 5776 5774 5773 5771 5770 5769 5768 5766 5765 5764 5762 5760 5758 5756 5754 5752 5750 5749 5746 5743 5741 5738 5735 5732 5729 5726 5723 5721 5718 5715 5713 5710 5707 5704 5701 5696 5692 5686 5681 5676 5671 5667 5664 5661 5658 5656 5655 5656 5656 5655 5656 5658 5661 5662 5663 5665 5669 5673 5673 5675 5680 5681 5686 5690 5691 5694 5697 5700 5704 5707 5712 5716 5719 5725 5728 5730 5731 5732 5735 5740 5742 5745 5748 5749 5750 5751 5752
5776 5774 5773 5771 5770 5768 5767 5766 5764 5763 5762 5760 5759 5757 5755 5753 5751 5749 5747 5745 5742 5739 5736 5733 5731 5728 5725 5722 5719 5718 5715 5712 5709 5706 5703 5699 5695 5690 5686 5681 5675 5670 5664 5660 5657 5655 5653 5652 5651 5651 5651 5652 5653 5655 5656 5656 5658 5663 5665 5666 5670 5672 5674 5680 5683 5684 5686 5688 5690 5695 5699 5706 5709 5710 5717 5721 5723 5725 5726 5729 5733 5735 5737 5740 5742 5744 5744 5744
5774 5773 5771 5769 5768 5767 5765 5764 5762 5761 5760 5759 5757 5755 5753 5751 5750 5748 5746 5744 5740 5737 5735 5733 5731 5728 5725 5722 5720 5717 5714 5712 5708 5705 5701 5697 5694 5690 5685 5680 5674 5669 5663 5659 5656 5652 5650 5648 5648 5648 5648 5648 5649 5650 5651 5651 5653 5655 5657 5660 5663 5665 5669 5673 5676 5677 5677 5679 5684 5688 5692 5698 5701 5703 5709 5713 5716 5719 5720 5722 5725 5728 5729 5731 5733 5736 5735 5736
5772 5771 5769 5768 5766 5765 5763 5762 5761 5759 5758 5757 5755 5754 5752 5750 5749 5746 5744 5742 5740 5738 5736 5733 5729 5726 5723 5720 5718 5716 5714 5711 5708 5705 5701 5697 5693 5689 5683 5678 5674 5670 5668 5664 5659 5654 5650 5647 5646 5645 5645 5645 5645 5646 5646 5646 5648 5649 5651 5654 5656 5659 5663 5665 5668 5670 5671 5674 5678 5681 5684 5689 5694 5697 5702 5707 5710 5711 5713 5714 5716 5719 5721 5721 5723 5725 5725 5725
5771 5769 5768 5766 5765 5763 5762 5760 5759 5757 5756 5755 5754 5752 5751 5749 5747 5745 5743 5741 5739 5738 5735 5732 5728 5724 5721 5719 5716 5714 5712 5711 5708 5705 5701 5698 5694 5689 5684 5680 5676 5674 5671 5666 5660 5654 5650 5647 5646 5645 5644 5643 5643 5643 5643 5643 5644 5645 5646 5648 5649 5652 5656 5658 5660 5662 5665 5669 5673 5674 5677 5682 5688 5691 5696 5701 5703 5704 5706 5707 5708 5710 5712 5713 5713 5712 5712 5715
5769 5767 5766 5764 5763 5761 5760 5759 5757 5756 5755 5753 5752 5751 5750 5748 5746 5744 5742 5740 5738 5736 5733 5730 5728 5725 5721 5718 5715 5712 5711 5710 5708 5705 5702 5699 5695 5691 5688 5685 5681 5677 5671 5664 5659 5656 5653 5650 5647 5644 5643 5642 5642 5641 5641 5641 5641 5641 5642 5644 5645 5646 5649 5651 5653 5655 5659 5664 5667 5668 5670 5676 5681 5683 5689 5693 5696 5698 5698 5699 5701 5701 5702 5702 5701 5702 5704 5709
5767 5766 5764 5763 5761 5760 5758 5757 5756 5754 5753 5752 5751 5750 5748 5746 5745 5743 5741 5739 5737 5734 5732 5729 5726 5724 5721 5718 5716 5713 5710 5709 5707 5705 5702 5699 5696 5692 5689 5686 5683 5677 5672 5668 5664 5661 5658 5653 5648 5645 5643 5642 5641 5640 5640 5640 5639 5639 5639 5640 5641 5641 5643 5645 5646 5649 5653 5657 5661 5662 5666 5673 5675 5677 5683 5686 5689 5691 5691 5693 5692 5690 5690 5690 5692 5697 5700 5703
5765 5764 5762 5761 5759 5758 5757 5756 5754 5753 5752 5751 5750 5748 5747 5745 5744 5742 5740 5738 5736 5733 5731 5729 5726 5723 5721 5719 5716 5713 5711 5709 5707 5705 5702 5700 5696 5692 5689 5686 5682 5678 5675 5672 5668 5664 5660 5654 5650 5647 5645 5643 5641 5640 5639 5638 5638 5638 5637 5637 5638 5637 5640 5641 5641 5644 5646 5649 5654 5657 5663 5668 5670 5673 5676 5678 5681 5683 5685 5685 5679 5677 5682 5684 5687 5691 5693 5694
5764 5762 5761 5759 5758 5757 5755 5754 5753 5752 5751 5750 5748 5747 5746 5744 5742 5741 5739 5737 5735 5733 5731 5728 5725 5723 5721 5719 5716 5713 5711 5709 5707 5704 5702 5699 5696 5693 5689 5686 5683 5679 5675 5671 5667 5664 5660 5656 5653 5649 5646 5645 5642 5640 5639 5638 5637 5636 5636 5635 5635 5635 5637 5637 5637 5639 5640 5643 5647 5651 5658 5662 5664 5668 5669 5670 5674 5676 5675 5671 5668 5672 5678 5679 5680 5682 5684 5686
5763 5761 5759 5758 5756 5755 5754 5753 5752 5751 5749 5748 5747 5746 5745 5743 5741 5740 5738 5736 5734 5732 5730 5727 5724 5722 5719 5717 5715 5712 5710 5708 5706 5704 5702 5699 5696 5693 5690 5686 5683 5680 5676 5672 5669 5666 5662 5659 5655 5651 5649 5646 5644 5642 5641 5638 5637 5636 5635 5634 5634 5634 5634 5633 5633 5635 5636 5640 5641 5643 5651 5655 5658 5662 5661 5665 5669 5666 5663 5662 5664 5669 5671 5671 5672 5673 5675 5677
5762 5760 5758 5757 5755 5754 5753 5751 5750 5749 5748 5747 5746 5745 5744 5742 5741 5739 5737 5735 5733 5731 5729 5727 5724 5721 5718 5716 5714 5712 5709 5707 5705 5702 5700 5698 5695 5692 5689 5687 5684 5680 5677 5673 5671 5667 5663 5660 5656 5654 5652 5649 5647 5646 5643 5640 5638 5636 5634 5633 5632 5631 5632 5631 5631 5631 5633 5636 5635 5637 5645 5648 5652 5656 5655 5659 5661 5656 5655 5659 5661 5662 5662 5661 5662 5664 5667 5669
5761 5759 5758 5756 5754 5753 5752 5750 5749 5748 5747 5746 5745 5744 5743 5741 5740 5738 5736 5734 5732 5730 5728 5725 5723 5721 5719 5716 5713 5711 5708 5706 5704 5701 5700 5698 5695 5692 5689 5687 5684 5682 5679 5675 5672 5669 5665 5661 5659 5657 5656 5654 5652 5649 5645 5642 5639 5637 5635 5633 5631 5630 5630 5630 5630 5630 5631 5632 5632 5634 5638 5641 5648 5651 5648 5650 5651 5649 5653 5655 5654 5654 5654 5653 5654 5656 5659 5661
5761 5759 5757 5756 5754 5752 5751 5750 5748 5747 5746 5745 5744 5743 5742 5741 5739 5737 5735 5733 5730 5728 5726 5723 5721 5720 5718 5716 5713 5710 5708 5705 5703 5702 5700 5697 5694 5692 5689 5687 5684 5682 5679 5676 5674 5671 5667 5664 5661 5659 5658 5656 5652 5648 5646 5643 5640 5638 5637 5634 5632 5630 5629 5629 5629 5629 5629 5630 5630 5630 5633 5638 5643 5642 5639 5642 5644 5646 5649 5647 5644 5645 5645 5646 5648 5650 5652 5654
5762 5760 5758 5756 5754 5753 5751 5750 5748 5747 5746 5745 5743 5742 5741 5740 5738 5736 5734 5732 5730 5727 5725 5722 5720 5718 5716 5714 5712 5709 5707 5705 5703 5701 5699 5696 5694 5692 5690 5688 5685 5682 5679 5677 5675 5672 5669 5666 5662 5659 5657 5654 5652 5649 5647 5645 5643 5640 5637 5635 5633 5631 5630 5629 5628 5628 5627 5628 5628 5628 5631 5636 5637 5635 5634 5637 5640 5641 5639 5636 5635 5636 5637 5640 5643 5644 5646 5647
5763 5760 5758 5757 5755 5753 5751 5750 5748 5747 5746 5744 5743 5741 5740 5739 5738 5736 5734 5731 5729 5727 5725 5723 5720 5718 5715 5713 5711 5710 5708 5705 5703 5700 5698 5695 5693 5691 5688 5687 5684 5681 5678 5677 5675 5672 5670 5667 5663 5660 5656 5653 5651 5650 5648 5647 5645 5642 5639 5637 5635 5633 5631 5630 5628 5628 5627 5627 5627 5627 5629 5631 5633 5632 5631 5631 5632 5631 5628 5626 5627 5628 5631 5635 5637 5638 5640 5641
5764 5761 5759 5757 5755 5754 5752 5750 5748 5747 5746 5744 5743 5741 5740 5738 5737 5736 5733 5731 5729 5727 5725 5722 5720 5718 5715 5713 5712 5710 5708 5705 5703 5700 5698 5696 5694 5691 5688 5685 5682 5680 5677 5676 5674 5672 5670 5667 5665 5662 5658 5654 5651 5650 5649 5648 5646 5644 5642 5641 5638 5636 5634 5632 5630 5629 5628 5627 5627 5627 5627 5628 5629 5629 5628 5626 5624 5622 5620 5619 5620 5622 5626 5629 5631 5633 5634 5635
5765 5762 5760 5758 5756 5755 5752 5750 5749 5747 5746 5744 5743 5741 5739 5738 5737 5735 5733 5730 5728 5726 5724 5722 5720 5718 5716 5714 5712 5709 5707 5705 5703 5701 5698 5696 5694 5692 5689 5686 5684 5682 5679 5676 5672 5670 5669 5667 5666 5664 5661 5659 5657 5654 5652 5651 5649 5647 5646 5645 5642 5639 5637 5635 5633 5631 5630 5628 5626 5625 5625 5625 5626 5626 5625 5621 5618 5617 5615 5613 5613 5616 5620 5623 5625 5626 5628 5630
5766 5763 5761 5759 5757 5755 5753 5751 5749 5748 5746 5744 5743 5741 5739 5737 5736 5734 5732 5730 5727 5725 5723 5721 5719 5717 5715 5713 5711 5709 5707 5705 5703 5700 5698 5696 5693 5691 5689 5686 5684 5682 5679 5677 5674 5671 5670 5668 5666 5664 5662 5661 5659 5657 5654 5652 5650 5648 5646 5643 5640 5638 5636 5635 5634 5633 5632 5630 5627 5625 5624 5623 5623 5624 5621 5616 5614 5614 5611 5608 5608 5610 5613 5616 5619 5620 5622 5623
5767 5764 5762 5759 5757 5755 5753 5751 5750 5748 5746 5744 5743 5741 5739 5737 5736 5734 5732 5730 5728 5725 5723 5720 5718 5716 5714 5713 5710 5708 5706 5704 5702 5700 5697 5695 5692 5691 5689 5687 5684 5682 5679 5677 5675 5673 5670 5668 5666 5664 5662 5660 5657 5654 5651 5648 5646 5644 5642 5640 5638 5637 5635 5633 5632 5631 5631 5630 5628 5625 5624 5622 5621 5621 5617 5612 5611 5610 5607 5605 5606 5607 5608 5610 5612 5613 5615 5617
5767 5765 5762 5760 5757 5755 5753 5751 5749 5748 5746 5744 5742 5740 5738 5736 5735 5733 5731 5729 5727 5726 5723 5721 5718 5716 5713 5711 5709 5708 5705 5703 5701 5699 5697 5695 5693 5691 5689 5687 5684 5682 5680 5678 5675 5672 5669 5666 5664 5661 5659 5657 5655 5653 5650 5647 5645 5643 5640 5639 5639 5638 5636 5634 5632 5630 5629 5629 5628 5626 5624 5622 5620 5617 5614 5610 5609 5607 5603 5601 5602 5603 5605 5606 5606 5607 5609 5610
5767 5765 5763 5760 5758 5755 5753 5751 5749 5747 5746 5744 5742 5740 5738 5736 5734 5732 5730 5729 5727 5725 5723 5721 5719 5716 5714 5711 5709 5707 5705 5703 5701 5699 5697 5695 5693 5690 5688 5686 5684 5681 5679 5677 5675 5672 5668 5665 5662 5659 5656 5655 5653 5652 5650 5648 5645 5643 5640 5638 5637 5636 5635 5634 5632 5631 5628 5627 5627 5626 5624 5622 5619 5615 5612 5609 5607 5603 5600 5599 5600 5601 5602 5602 5602 5602 5604 5605
5767 5765 5763 5760 5758 5755 5753 5751 5749 5747 5745 5743 5741 5739 5737 5735 5733 5732 5730 5728 5726 5724 5723 5721 5719 5717 5714 5712 5709 5707 5704 5702 5700 5698 5697 5695 5692 5690 5687 5685 5682 5680 5678 5676 5674 5671 5668 5665 5662 5658 5655 5653 5652 5650 5649 5647 5645 5642 5639 5637 5634 5632 5631 5630 5629 5629 5627 5626 5626 5626 5623 5619 5617 5614 5609 5607 5604 5599 5595 5596 5598 5599 5598 5598 5598 5598 5599 5600
5766 5764 5763 5760 5758 5755 5753 5751 5749 5747 5745 5743 5741 5739 5736 5734 5733 5731 5729 5727 5725 5724 5722 5720 5718 5717 5714 5712 5710 5707 5705 5702 5700 5698 5696 5694 5692 5689 5686 5684 5682 5679 5677 5675 5672 5670 5668 5665 5662 5659 5656 5653 5651 5649 5647 5646 5644 5641 5639 5635 5632 5630 5628 5627 5625 5624 5623 5621 5621 5623 5623 5618 5615 5612 5608 5604 5602 5597 5593 5593 5594 5595 5594 5593 5594 5594 5594 5594
5764 5763 5762 5760 5757 5755 5753 5751 5749 5747 5744 5742 5740 5738 5736 5734 5732 5730 5728 5727 5725 5723 5721 5719 5718 5716 5714 5712 5710 5707 5705 5702 5700 5698 5695 5693 5690 5688 5686 5683 5681 5678 5676 5674 5672 5669 5668 5665 5662 5658 5656 5653 5651 5648 5646 5644 5643 5640 5637 5634 5632 5629 5627 5625 5623 5621 5618 5616 5614 5615 5620 5620 5615 5610 5607 5604 5600 5596 5591 5589 5589 5590 5590 5589 5589 5589 5589 5589
5763 5761 5760 5758 5756 5754 5752 5750 5748 5746 5744 5742 5739 5737 5735 5733 5731 5729 5728 5726 5724 5722 5720 5718 5716 5715 5713 5711 5709 5707 5704 5702 5700 5697 5694 5692 5689 5687 5685 5683 5680 5677 5675 5673 5671 5669 5667 5665 5662 5658 5655 5653 5651 5649 5646 5644 5641 5638 5636 5634 5631 5629 5626 5624 5623 5620 5618 5615 5612 5609 5611 5617 5615 5610 5606 5602 5598 5594 5589 5585 5584 5585 5586 5585 5584 5583 5584 5584
5761 5759 5758 5756 5755 5753 5751 5749 5747 5745 5743 5741 5739 5736 5734 5732 5730 5728 5726 5725 5723 5721 5719 5717 5715 5713 5711 5710 5708 5706 5703 5701 5699 5696 5693 5691 5688 5686 5684 5682 5680 5677 5675 5672 5670 5668 5666 5664 5661 5659 5655 5652 5650 5648 5646 5643 5641 5638 5635 5632 5630 5628 5625 5622 5621 5619 5617 5614 5612 5607 5604 5609 5613 5609 5604 5600 5595 5590 5586 5582 5580 5579 5580 5579 5577 5576 5577 5577
5759 5757 5755 5754 5753 5751 5749 5747 5745 5743 5741 5740 5738 5735 5733 5731 5729 5727 5725 5723 5721 5720 5718 5716 5714 5712 5710 5708 5706 5704 5702 5699 5697 5695 5692 5690 5687 5685 5683 5681 5678 5676 5674 5672 5669 5666 5664 5661 5660 5657 5654 5650 5647 5645 5644 5643 5640 5637 5634 5630 5627 5624 5621 5618 5616 5615 5615 5612 5609 5604 5599 5603 5608 5604 5598 5594 5590 5585 5581 5576 5574 5574 5574 5573 5571 5569 5568 5568
5756 5755 5753 5751 5750 5749 5747 5745 5743 5741 5739 5737 5736 5734 5732 5729 5727 5725 5723 5721 5719 5717 5715 5714 5712 5710 5708 5706 5704 5701 5699 5697 5695 5693 5691 5688 5685 5683 5680 5678 5676 5674 5672 5670 5667 5663 5660 5658 5656 5655 5653 5649 5646 5644 5643 5642 5638 5635 5631 5627 5623 5621 5617 5615 5612 5609 5609 5608 5605 5599 5595 5598 5601 5597 5592 5588 5584 5580 5575 5570 5568 5568 5566 5565 5563 5561 5560 5559
5753 5752 5751 5749 5747 5746 5744 5743 5741 5739 5737 5735 5733 5731 5730 5727 5725 5723 5721 5719 5717 5715 5713 5711 5709 5707 5705 5703 5701 5699 5696 5694 5692 5690 5687 5685 5682 5680 5677 5675 5673 5671 5669 5667 5664 5661 5657 5653 5651 5649 5648 5647 5645 5642 5640 5639 5636 5632 5628 5623 5620 5617 5614 5611 5608 5604 5602 5602 5599 5593 5590 5592 5594 5590 5588 5584 5578 5574 5569 5565 5563 5561 5559 5557 5556 5554 5552 5551
5750 5749 5748 5746 5745 5743 5741 5740 5738 5736 5734 5733 5731 5729 5727 5725 5723 5720 5718 5716 5714 5712 5709 5707 5705 5704 5702 5700 5698 5696 5693 5690 5688 5686 5684 5681 5679 5677 5674 5672 5670 5668 5665 5663 5660 5658 5655 5650 5647 5644 5641 5639 5638 5636 5634 5634 5633 5629 5626 5621 5616 5613 5609 5606 5603 5599 5595 5594 5593 5589 5583 5584 5586 5585 5583 5578 5572 5567 5564 5560 5558 5555 5552 5550 5549 5547 5545 5543
5747 5746 5744 5743 5742 5740 5738 5736 5735 5734 5732 5730 5728 5726 5724 5722 5720 5717 5714 5712 5711 5709 5706 5704 5702 5700 5698 5696 5695 5693 5691 5688 5685 5683 5681 5678 5675 5673 5670 5668 5666 5664 5661 5659 5656 5653 5651 5647 5643 5641 5638 5634 5632 5631 5628 5627 5627 5625 5622 5618 5613 5609 5604 5600 5597 5594 5589 5585 5586 5586 5577 5572 5574 5576 5573 5570 5565 5560 5557 5554 5551 5548 5545 5543 5542 5541 5538 5535
5743 5742 5741 5740 5738 5737 5735 5733 5732 5730 5729 5727 5725 5723 5721 5719 5716 5714 5711 5709 5707 5705 5703 5700 5698 5696 5694 5692 5691 5689 5688 5685 5682 5680 5677 5675 5672 5669 5667 5664 5662 5660 5657 5655 5652 5648 5647 5644 5640 5637 5635 5630 5628 5627 5624 5623 5622 5620 5618 5614 5609 5604 5599 5594 5590 5587 5583 5577 5577 5580 5575 5567 5565 5565 5561 5558 5555 5552 5548 5545 5542 5540 5537 5534 5533 5533 5531 5527
5740 5739 5738 5736 5734 5733 5732 5730 5728 5727 5725 5723 5722 5720 5718 5715 5713 5710 5708 5705 5703 5701 5699 5696 5694 5692 5690 5688 5687 5685 5684 5682 5680 5676 5674 5671 5668 5665 5662 5659 5657 5656 5653 5651 5648 5644 5642 5640 5636 5633 5631 5628 5624 5622 5620 5619 5617 5615 5612 5608 5604 5600 5594 5589 5586 5581 5576 5570 5568 5570 5568 5564 5562 5558 5552 5548 5545 5542 5539 5535 5532 5530 5529 5526 5525 5524 5522 5520
5736 5735 5734 5733 5731 5730 5728 5726 5724 5723 5722 5720 5718 5716 5714 5712 5710 5707 5704 5702 5699 5697 5695 5692 5690 5688 5686 5684 5683 5681 5679 5677 5676 5673 5670 5668 5665 5662 5659 5655 5652 5651 5649 5646 5644 5640 5637 5635 5632 5628 5627 5625 5621 5617 5615 5613 5613 5612 5608 5603 5599 5595 5589 5583 5580 5576 5570 5565 5562 5560 5557 5556 5556 5552 5545 5540 5536 5533 5529 5525 5523 5521 5519 5518 5516 5514 5512 5511
5732 5731 5730 5729 5727 5726 5724 5723 5721 5719 5718 5716 5714 5713 5711 5709 5706 5704 5701 5698 5695 5693 5691 5688 5685 5683 5681 5679 5678 5676 5674 5672 5671 5669 5666 5664 5661 5658 5656 5653 5649 5647 5645 5642 5639 5635 5632 5630 5626 5623 5622 5621 5616 5612 5609 5607 5607 5606 5604 5599 5593 5588 5582 5577 5572 5568 5563 5559 5557 5552 5547 5545 5545 5542 5538 5533 5527 5523 5519 5516 5514 5512 5510 5509 5507 5504 5502 5501
5728 5727 5726 5724 5723 5722 5720 5718 5717 5715 5714 5712 5711 5709 5707 5705 5703 5700 5698 5695 5691 5688 5686 5683 5681 5679 5677 5675 5672 5670 5669 5667 5665 5663 5661 5659 5656 5653 5650 5648 5645 5643 5641 5638 5635 5631 5626 5624 5621 5616 5615 5615 5611 5606 5603 5601 5600 5599 5597 5594 5588 5581 5575 5570 5565 5561 5555 5551 5549 5546 5540 5536 5533 5530 5528 5525 5520 5514 5510 5507 5504 5503 5502 5500 5498 5494 5491 5491
5724 5723 5721 5720 5719 5717 5715 5714 5712 5710 5709 5708 5707 5705 5702 5700 5698 5696 5694 5691 5688 5684 5681 5678 5675 5674 5672 5670 5667 5665 5663 5661 5659 5657 5655 5653 5650 5647 5644 5642 5640 5637 5635 5632 5629 5625 5621 5618 5615 5610 5607 5607 5604 5599 5595 5594 5593 5592 5590 5586 5581 5574 5568 5563 5558 5553 5549 5544 5541 5537 5533 5529 5523 5518 5516 5514 5512 5506 5502 5498 5495 5493 5492 5491 5489 5485 5481 5479